Zurück zum Katalog

STARLINK-35275

AktivKommunikationVLEO
NORAD 65756·PAYLOAD·🇺🇸 United States

Gestartet Sep 25, 2025 von Cape Canaveral Space Force Station

Loading…

Nächste Überflüge (nächste 24 Stunden)

TLE

AktuellSource: CelesTrak SupGP

Epoche: Sep 14, 2026, 14:16 UTC

1 65756C 25216Y   26257.59493056  .00061825  00000+0  18275-2 0  2571
2 65756  53.1564 173.5003 0001240  92.0979 252.6862 15.34345600    10

Verfolge STARLINK-35275 in Echtzeit mit AllMySat

Download on the App Store